Theta_e
301 293 290 289 293 296 298 298 297 297 297 296 295 294 292 292 293 296 297 298 299 294 292 293 292 292 294 295 297 299 300 299 299 299 300 299 300 301 300 299 300 299 299 300 300 300 299 299 299 299 299 299 300 301 301 301 302 303 304 304 306 307 307 308 309 311 310 309 310 310 310 311 311 312 312 313 314 313 313 313 312 312 312 311 311 310
302 292 293 296 297 298 299 300 299 298 297 295 293 292 292 292 291 295 296 298 297 293 291 293 292 292 294 297 298 299 298 298 299 298 298 299 299 300 299 299 298 299 299 299 298 298 298 297 297 297 298 298 297 298 299 300 300 301 302 303 304 306 306 306 308 310 309 310 310 309 309 310 310 310 309 310 311 312 312 311 310 310 309 310 310 309
293 290 295 298 300 300 300 299 299 296 295 295 292 291 290 291 294 296 297 298 295 293 289 292 290 292 295 297 298 298 298 299 299 299 298 298 297 298 298 298 297 297 296 296 296 297 296 296 296 296 296 296 297 297 298 298 299 300 301 302 303 304 304 304 304 305 307 308 309 309 308 308 308 309 309 309 309 309 309 307 307 307 307 307 306 307
289 293 297 300 300 298 298 298 297 296 295 291 291 288 287 292 290 287 294 294 295 293 290 291 291 292 295 297 297 299 299 298 300 300 299 298 296 296 296 296 295 295 295 294 294 294 294 294 294 294 295 295 296 296 296 297 297 299 299 300 301 301 302 302 303 303 305 307 308 307 306 307 305 302 305 306 306 306 307 305 305 305 306 305 304 304
294 299 302 300 299 298 296 296 295 292 291 293 293 291 290 291 292 292 292 295 295 295 295 292 290 290 294 294 295 298 299 298 298 298 297 297 298 298 297 296 295 294 294 293 293 293 293 293 293 293 294 295 295 295 295 296 296 297 297 299 300 300 300 301 302 302 302 305 304 305 304 303 303 303 302 302 303 303 303 303 303 304 305 305 303 303
296 300 301 298 298 297 296 293 294 294 290 291 294 294 294 294 292 294 294 292 288 288 292 291 283 285 291 294 296 299 297 294 295 295 294 295 295 295 294 294 295 294 294 293 292 292 292 292 292 292 293 293 294 294 295 295 295 295 296 297 298 298 299 299 300 301 301 302 301 300 299 298 299 299 300 299 299 300 300 301 302 303 303 304 303 302
297 299 299 298 297 296 295 293 294 296 290 288 290 296 297 295 294 293 292 289 282 281 291 293 283 281 290 291 295 297 294 292 294 293 293 294 294 294 293 293 293 293 292 292 292 292 291 291 291 291 292 292 293 294 295 295 295 295 295 295 296 296 297 299 299 300 300 299 300 300 300 299 298 297 299 300 300 300 301 301 301 301 302 302 302 301
297 296 294 296 296 294 293 291 295 295 290 287 294 295 295 294 292 292 292 289 286 290 292 292 290 282 283 289 295 297 292 291 291 292 292 293 293 293 293 292 292 292 291 291 291 291 291 291 291 290 291 292 292 293 294 294 295 294 294 294 294 295 295 296 298 299 299 298 298 298 298 298 298 298 298 299 299 299 297 298 299 300 300 300 301 300
296 293 294 294 293 290 291 295 298 298 292 291 293 294 293 292 292 291 289 286 286 284 282 286 290 282 282 289 295 295 289 289 289 290 291 292 292 292 292 292 291 291 291 291 290 290 290 290 290 291 290 291 292 293 293 293 293 294 293 293 293 294 294 295 295 296 297 297 298 298 298 297 298 298 298 298 299 298 297 298 298 299 298 298 299 299
297 296 297 298 293 290 295 291 295 298 293 295 294 295 294 293 293 291 285 285 284 283 280 285 289 281 283 290 291 293 290 288 289 290 291 291 291 291 291 291 291 291 290 290 290 290 290 290 290 290 290 291 291 292 293 292 292 292 292 293 293 293 293 294 294 294 295 295 295 295 295 295 295 297 297 297 297 297 297 296 296 297 297 296 296 297
294 295 297 296 294 297 290 292 293 295 294 294 296 293 290 290 288 287 286 285 283 278 281 287 290 287 279 287 290 290 292 290 290 290 290 290 290 290 290 290 290 290 290 290 290 290 290 290 290 290 289 290 290 290 291 291 291 291 292 292 291 292 293 293 293 293 293 293 293 293 293 293 293 294 295 294 295 295 295 296 296 295 295 295 295 295
294 295 294 295 300 296 295 292 293 294 294 293 288 286 287 285 285 285 283 283 278 278 283 288 290 290 280 282 290 290 292 292 291 290 290 289 289 290 290 290 290 289 289 289 288 288 289 289 289 289 289 289 289 290 290 290 290 290 290 290 290 290 291 292 292 292 292 292 292 292 292 292 292 292 293 292 292 293 293 294 294 294 294 294 295 294
288 290 294 298 297 297 293 290 291 292 292 290 287 285 282 280 282 278 280 275 278 278 282 284 288 284 284 288 292 292 292 292 292 293 291 289 288 289 289 290 289 289 288 287 287 288 288 288 288 288 288 288 288 288 289 289 289 289 289 289 288 289 290 290 291 291 291 291 291 291 291 291 291 291 291 291 291 292 292 292 293 293 292 293 293 293
288 293 293 294 295 297 296 286 286 284 286 287 284 281 281 277 276 273 277 280 280 283 283 284 287 281 287 289 292 291 291 291 291 291 290 289 289 288 288 288 288 288 287 287 287 287 287 287 287 287 288 288 287 287 288 288 288 289 288 288 288 288 289 289 290 290 290 290 290 290 290 290 291 290 290 290 290 291 291 292 291 292 292 292 292 293
281 281 290 292 290 295 294 293 292 293 286 287 289 287 282 281 277 273 277 274 275 279 283 285 281 279 279 284 289 291 290 290 290 289 289 289 288 288 288 287 287 286 286 286 286 286 287 287 287 287 287 287 287 287 287 287 287 287 287 287 287 287 288 289 289 289 289 289 289 289 289 289 290 290 290 290 290 290 290 290 291 291 291 291 291 292
288 286 294 297 294 294 293 296 298 295 289 290 290 292 286 282 287 282 283 282 281 281 281 281 280 283 286 290 290 290 290 289 289 288 288 287 288 287 286 286 285 285 285 285 285 285 285 286 286 286 286 286 286 286 286 286 286 286 286 286 286 286 287 287 288 288 289 288 288 287 287 287 288 288 288 288 289 289 289 290 290 290 290 291 291 291
286 283 292 296 294 293 292 295 297 298 283 287 288 283 286 291 290 284 284 286 284 283 280 286 284 287 292 290 289 289 288 288 288 288 287 287 286 286 285 285 284 285 284 284 284 284 284 284 285 286 285 285 286 286 286 285 285 285 285 285 285 285 285 286 287 287 288 288 288 288 287 287 286 286 286 287 286 287 288 288 288 288 289 289 290 291
284 286 294 292 291 293 291 293 293 294 295 286 282 286 291 293 291 285 279 281 280 277 278 283 280 282 281 278 288 287 286 286 286 286 286 286 285 284 284 284 284 284 284 283 284 284 284 284 284 284 285 284 285 284 284 285 285 285 285 285 284 284 284 285 286 286 286 286 287 287 286 286 287 287 286 287 286 286 286 286 287 287 287 287 288 289
293 283 290 292 294 292 293 293 291 295 294 289 287 292 284 281 281 283 281 275 276 275 277 280 282 282 284 284 286 285 285 285 286 286 285 285 284 284 284 284 284 283 284 285 284 284 284 283 283 283 284 284 285 285 285 285 285 284 284 283 283 283 284 284 285 284 285 285 287 287 286 285 286 286 286 286 286 285 285 285 285 284 285 285 286 286
292 281 284 292 293 293 292 290 282 286 290 292 292 286 292 285 283 281 282 281 282 276 277 277 281 277 287 285 287 287 286 286 286 285 285 285 285 285 284 284 283 283 283 284 283 284 284 284 283 283 283 283 285 285 286 285 285 284 284 283 284 284 284 284 284 284 284 285 285 285 284 284 285 285 285 285 285 284 284 285 285 285 285 285 285 285
284 291 280 288 290 293 282 287 283 287 283 283 283 282 286 285 287 286 283 281 279 277 276 276 274 279 286 289 287 287 287 287 286 285 284 285 285 285 284 284 284 284 284 284 284 284 284 284 284 284 284 285 285 285 286 285 285 285 286 285 284 284 284 284 284 285 285 285 284 283 283 283 283 283 284 283 284 284 284 284 284 284 284 285 285 285
284 286 282 285 285 283 287 294 293 292 291 289 288 283 285 283 282 278 277 286 281 278 276 277 275 282 288 291 290 288 288 288 287 286 285 284 284 284 285 285 284 284 284 283 284 283 284 283 284 284 285 285 285 286 285 286 285 285 285 285 285 285 284 283 284 284 284 284 284 283 283 284 284 284 284 283 284 283 283 283 283 284 284 284 284 284
291 287 283 281 284 286 290 293 296 295 294 292 292 287 290 287 284 279 276 280 282 281 282 280 278 280 287 289 288 288 288 288 287 286 285 285 285 284 284 284 284 284 284 284 284 285 285 284 284 285 284 284 285 285 285 285 285 285 285 284 284 283 283 284 284 284 284 282 282 281 281 281 281 283 283 283 283 282 283 283 283 283 282 282 283 284
293 285 283 284 288 290 292 294 294 293 293 290 290 289 285 283 285 280 279 278 275 277 277 276 275 280 287 289 287 287 287 287 287 286 285 285 285 284 284 284 284 283 283 283 283 284 284 283 283 284 284 286 285 284 284 285 284 283 283 283 283 282 281 281 281 282 282 283 282 281 281 280 281 280 280 280 281 282 282 282 282 282 282 282 282 283
284 284 284 280 280 280 281 285 286 287 288 284 282 286 287 286 286 284 282 283 279 281 280 277 272 279 288 285 288 287 287 287 287 287 286 285 284 284 283 283 283 282 282 281 281 281 280 280 280 281 281 281 281 281 281 282 282 282 282 282 282 282 281 280 280 280 280 280 280 280 280 280 280 280 279 279 279 279 280 281 281 281 280 280 280 281
285 283 281 277 274 272 272 273 273 277 283 285 286 285 286 285 284 281 277 279 277 282 282 279 277 284 287 287 289 288 287 289 290 289 288 287 285 284 283 283 282 281 280 281 281 280 281 281 281 281 281 281 281 281 281 281 281 281 282 282 282 282 281 280 280 279 279 279 279 279 279 279 279 279 279 280 280 279 280 281 280 280 280 280 280 280
283 285 284 282 280 278 280 280 284 285 282 280 281 281 282 283 283 282 281 278 276 279 278 280 281 281 283 286 287 287 284 285 284 285 285 285 284 284 283 282 281 281 280 281 281 280 280 279 280 280 280 280 280 280 280 280 280 280 280 280 280 280 280 280 279 279 278 278 278 278 278 278 279 279 279 279 280 279 279 280 280 280 280 280 279 279
283 281 282 281 281 283 284 284 286 286 282 283 281 281 283 282 280 279 279 278 281 278 274 282 282 279 280 283 285 284 284 286 286 286 284 283 283 282 282 281 284 281 281 280 280 280 279 279 279 280 280 280 280 280 280 280 280 281 281 281 280 280 280 281 279 278 278 278 278 278 278 279 279 279 280 280 280 279 278 278 279 279 280 280 280 279
281 277 280 281 279 283 284 284 285 284 283 282 282 281 280 282 280 278 279 281 281 276 275 280 281 279 280 283 285 285 285 286 286 286 285 284 283 282 280 280 280 279 279 279 279 279 279 278 279 279 279 279 280 279 279 280 279 280 280 280 280 280 280 280 279 278 277 277 278 278 278 278 278 278 279 279 279 279 279 279 278 279 279 280 280 281
281 276 279 281 278 279 281 282 283 281 281 281 281 281 282 281 281 280 280 281 280 279 280 280 280 280 282 283 285 285 285 284 283 282 282 281 281 281 280 280 279 280 279 279 278 278 278 279 279 279 279 279 279 279 279 279 279 279 280 280 280 280 280 281 279 278 277 277 278 278 278 278 278 278 278 278 278 278 278 278 278 278 278 279 279 279
282 275 283 276 274 274 279 280 280 279 280 278 279 280 281 281 281 280 281 281 280 279 280 280 279 279 284 286 284 283 283 283 281 281 281 281 281 280 280 279 279 279 280 280 279 278 278 278 279 279 279 279 279 279 280 280 280 280 279 279 279 279 279 280 279 278 277 277 278 278 278 278 278 278 278 278 278 278 278 278 278 277 277 278 278 278
280 274 278 275 273 274 277 275 276 276 278 278 278 279 279 278 277 279 278 280 279 277 279 278 277 277 281 281 282 281 281 280 279 280 279 280 278 278 278 277 277 277 278 278 279 279 278 278 278 278 278 279 279 279 279 279 280 279 279 279 279 279 279 279 278 277 277 277 278 278 278 278 278 278 278 278 277 278 278 278 277 277 277 277 277 277
277 276 274 274 273 274 278 278 276 277 276 274 275 278 280 280 281 281 282 282 281 281 277 275 275 280 279 282 279 280 277 277 277 277 276 276 277 277 277 276 277 277 278 278 279 279 279 278 278 278 279 278 279 280 280 279 279 279 279 279 280 278 278 277 277 278 278 278 278 278 278 278 277 277 277 277 277 277 278 277 277 276 276 276 276 277
278 277 275 277 273 274 277 276 277 273 268 270 281 284 282 279 280 278 278 279 281 282 278 280 277 278 278 279 278 277 275 276 276 276 278 277 276 277 277 277 277 278 278 278 278 278 279 279 278 278 278 279 279 278 279 280 279 279 279 278 277 277 277 277 278 278 278 278 278 278 278 278 277 277 277 277 277 277 277 276 276 276 276 275 275 275
278 280 278 280 274 273 277 275 271 266 268 279 281 283 282 281 280 278 278 279 279 279 279 278 277 278 277 277 276 276 276 276 276 275 275 276 277 277 277 277 278 278 278 278 278 278 278 279 279 278 278 279 279 278 279 278 278 278 277 277 277 277 276 277 277 277 277 277 277 277 277 277 277 277 277 277 277 276 276 276 276 275 275 275 274 274
278 278 278 277 277 276 274 272 266 266 276 276 278 279 280 278 277 277 275 277 278 279 278 277 278 280 277 277 276 276 276 275 275 276 277 277 278 278 277 277 278 278 278 278 278 278 278 277 277 277 277 278 278 278 277 277 277 276 276 276 275 275 274 275 275 275 276 276 276 276 276 276 276 276 275 275 275 275 275 275 275 275 275 274 274 274
280 277 275 271 274 267 269 269 269 274 273 274 274 277 276 275 274 273 267 273 278 276 278 278 280 277 276 275 275 276 276 276 275 276 277 278 279 278 278 278 278 278 278 278 278 278 277 277 276 277 277 277 277 277 276 276 276 275 275 275 274 274 274 274 274 274 274 274 275 275 275 275 274 273 274 274 274 273 273 273 273 273 274 273 273 272
281 276 276 272 269 275 267 266 267 266 264 269 274 276 279 279 278 277 272 268 275 275 275 276 274 271 271 273 275 275 277 274 272 273 276 277 279 280 280 280 279 278 278 278 277 277 276 277 276 276 277 275 275 275 275 275 274 274 274 273 273 272 272 272 271 272 272 272 273 273 272 272 272 272 272 272 271 271 271 271 272 272 272 271 271 271
276 278 276 275 271 272 268 266 265 264 266 270 270 274 276 276 277 275 270 267 272 270 272 274 271 271 272 273 274 276 273 268 270 273 276 277 278 277 277 277 277 278 278 277 276 276 276 276 276 276 275 274 274 274 273 273 272 272 271 271 271 270 269 269 270 270 270 270 271 271 270 270 270 270 270 269 269 269 268 268 268 269 270 269 270 269
270 271 272 272 272 273 270 267 264 266 262 270 270 272 275 278 279 273 264 264 273 274 274 274 273 272 271 273 274 273 271 266 270 274 277 277 278 278 278 277 277 277 276 276 276 276 276 276 275 274 273 273 272 272 272 271 270 269 269 269 269 268 268 268 269 269 269 269 268 268 267 268 268 268 267 265 265 265 265 266 266 267 267 267 268 267
267 266 271 269 271 271 273 269 271 270 277 273 275 277 277 279 274 264 262 268 274 275 276 275 273 274 274 273 274 270 274 276 276 276 276 276 277 276 277 278 277 276 276 276 276 279 274 274 274 273 272 272 271 270 270 269 267 267 267 267 267 266 267 268 268 267 267 266 265 265 265 265 265 264 263 263 263 264 264 264 264 264 264 264 265 265
267 265 267 268 267 267 267 267 267 270 274 277 277 278 278 273 263 264 272 276 277 277 277 275 274 275 275 275 275 275 276 276 276 276 276 276 276 276 277 276 276 276 276 276 277 275 273 273 272 271 270 270 269 269 268 267 265 265 265 265 264 265 266 266 265 265 264 263 263 262 262 262 262 262 262 262 262 261 261 262 262 262 262 263 262 262
268 265 263 265 268 268 268 266 266 262 272 274 273 275 277 268 269 274 274 276 278 278 276 275 276 276 276 275 275 276 275 275 275 275 275 276 276 276 276 275 275 274 274 273 272 273 272 270 269 269 268 268 267 267 267 265 263 264 264 263 264 265 264 264 264 263 262 262 261 261 261 261 260 260 261 260 261 260 260 260 260 261 261 261 261 261
272 264 266 269 272 262 265 264 265 272 276 277 276 269 272 276 278 278 276 275 278 277 276 277 277 277 277 276 275 275 275 275 274 275 275 275 276 276 275 275 274 274 273 273 271 271 268 268 267 267 267 266 265 265 265 263 262 262 262 262 264 264 263 262 262 261 261 260 260 260 260 260 260 260 260 260 260 259 259 259 259 260 260 260 260 260
274 269 272 267 272 268 264 268 272 276 276 278 278 278 278 279 279 278 278 278 277 277 277 277 276 276 276 276 275 275 275 275 275 275 275 276 276 275 275 274 273 273 272 271 270 268 266 266 265 265 264 265 264 263 262 261 261 261 260 262 262 262 261 261 260 260 259 259 259 259 259 259 259 259 259 259 259 258 259 259 259 259 259 260 260 260
275 277 276 274 273 276 277 277 277 277 277 277 280 280 279 279 279 278 277 277 277 278 278 278 276 276 276 276 275 274 275 275 275 275 275 275 274 275 274 273 272 271 269 268 267 266 264 264 262 262 262 262 262 262 260 260 259 259 260 262 262 261 261 260 259 259 258 258 258 258 259 258 258 258 259 259 259 259 259 259 259 259 259 259 259 259
275 276 275 272 275 271 267 276 274 276 277 277 278 279 279 280 280 279 278 279 278 278 277 277 277 276 276 276 276 275 275 275 275 275 275 274 274 273 272 271 270 268 267 265 266 264 263 261 262 261 261 260 261 260 260 259 260 260 261 260 261 261 260 259 258 258 258 258 258 258 258 258 258 258 258 259 259 259 259 259 259 259 259 259 258 258
271 278 274 274 273 272 271 275 276 277 277 278 278 277 277 278 279 279 280 279 279 279 278 278 277 276 276 275 275 275 275 275 275 275 274 273 272 271 270 269 267 267 266 265 264 262 261 260 260 260 259 259 260 260 260 259 259 260 260 260 260 259 259 258 258 258 257 257 257 258 258 257 259 258 258 258 258 258 258 259 259 258 258 258 258 258
276 277 271 273 272 274 275 276 277 277 277 277 278 277 278 279 279 279 279 278 277 277 277 276 277 276 276 276 275 275 274 274 274 272 271 271 270 270 268 267 266 265 264 264 263 261 260 259 258 258 258 258 259 259 259 259 259 259 259 260 259 259 258 258 258 258 257 257 257 257 258 258 257 257 257 257 258 258 258 258 258 258 259 260 260 260
276 273 276 275 271 270 270 274 275 270 271 276 277 278 279 280 280 279 278 278 277 277 276 275 275 275 275 275 274 274 272 272 271 271 269 269 269 268 267 265 264 263 263 263 261 260 259 259 258 257 257 258 259 258 258 258 259 259 260 259 259 258 258 258 257 257 257 257 257 257 257 257 257 257 257 257 257 257 258 261 266 264 262 261 265 269
275 276 276 272 272 271 276 277 278 278 277 278 278 279 278 278 277 277 276 276 277 277 276 276 274 272 272 272 272 272 270 271 269 268 267 267 267 266 265 264 263 262 262 261 260 259 258 258 257 257 257 258 258 258 258 258 258 258 259 259 259 259 258 257 257 257 257 257 257 257 257 257 257 257 257 257 257 257 257 257 259 265 267 267 267 268
Wind_Speed
5 4 4 5 7 10 9 10 12 12 11 12 9 7 8 9 7 6 9 8 6 6 3 4 5 5 7 7 10 15 11 10 12 12 11 6 3 9 11 13 12 14 11 8 10 11 12 12 12 10 10 10 11 13 14 13 14 14 12 10 7 5 5 4 4 3 3 2 2 2 2 1 1 0 1 1 0 2 2 3 4 5 5 5 5 5
1 4 5 8 11 13 12 9 9 9 7 8 6 6 8 4 10 6 8 6 4 0 1 3 6 6 8 13 17 13 8 11 10 6 6 12 11 11 13 12 12 10 8 10 11 12 11 12 12 11 11 12 15 14 14 13 13 12 13 12 9 9 7 7 4 4 3 2 2 2 2 2 1 3 3 1 1 1 2 3 4 5 4 6 6 6
2 6 8 12 12 11 9 9 8 7 6 6 6 4 5 6 8 9 11 7 0 1 4 4 4 6 10 17 17 10 8 5 6 11 8 11 11 10 10 10 11 11 10 11 11 10 11 11 12 11 11 12 12 12 12 11 11 12 11 11 10 11 10 9 8 7 4 5 6 6 5 6 2 5 4 3 2 2 2 3 3 3 3 4 4 5
5 5 17 13 9 9 9 8 7 7 4 4 5 4 6 5 4 4 1 2 0 1 4 5 9 7 11 15 15 11 7 6 10 15 12 10 13 13 11 10 10 10 9 10 10 10 10 10 11 12 13 12 11 12 13 13 13 10 11 11 11 11 10 9 9 8 5 6 6 6 6 6 6 3 4 5 5 4 3 3 3 1 1 3 4 4
9 5 2 4 8 8 8 5 5 4 6 3 5 5 7 7 5 6 4 7 5 7 6 6 5 5 10 8 4 3 2 11 11 12 12 11 10 9 10 12 10 10 8 9 9 9 9 12 13 12 11 11 13 13 13 12 12 9 11 11 10 9 9 8 9 9 6 6 4 4 3 3 2 2 3 3 1 2 1 1 2 1 0 1 3 3
10 7 6 5 4 3 3 4 7 4 6 5 6 8 9 7 4 3 5 6 3 3 2 3 4 3 2 5 11 13 1 8 7 12 7 11 9 9 11 9 7 7 8 9 10 9 9 9 10 12 12 13 12 13 11 10 11 11 11 11 10 9 9 9 8 9 7 7 7 7 6 6 3 2 1 0 1 3 3 3 2 3 3 2 2 2
1 2 1 1 3 3 2 5 6 1 5 2 3 2 2 2 1 2 3 3 2 1 2 2 0 7 2 9 8 8 8 8 7 9 7 7 9 9 9 8 7 7 7 8 8 9 11 11 12 13 14 12 12 11 9 9 11 12 11 10 10 9 8 9 8 8 8 8 8 6 5 4 4 5 4 4 4 5 1 2 2 2 2 2 3 3
4 3 5 2 1 3 3 6 5 8 3 4 0 3 3 1 1 1 1 2 5 3 5 5 4 7 5 5 9 8 12 9 8 8 7 7 8 9 9 8 7 7 7 6 10 10 9 11 12 13 11 12 11 9 9 10 10 12 13 11 10 8 8 9 8 8 9 8 8 8 7 7 7 7 6 6 3 3 3 3 1 1 2 2 2 2
0 2 1 2 3 3 5 5 1 3 4 1 0 3 1 1 1 1 3 4 3 4 6 6 5 1 5 4 6 7 10 7 7 7 7 8 7 9 9 9 7 7 7 7 8 9 10 11 11 10 11 10 10 10 11 10 10 9 8 7 5 8 9 9 9 9 10 10 9 8 7 7 6 7 6 7 7 6 2 1 1 0 0 2 2 3
2 2 2 3 4 4 2 1 2 1 3 1 2 0 0 1 2 4 3 3 3 1 7 3 6 4 8 5 6 4 7 7 7 8 8 8 9 7 8 7 7 5 5 6 7 8 9 9 9 8 8 11 10 9 9 8 7 6 5 7 10 11 9 8 8 9 10 10 9 9 8 7 7 7 7 6 7 6 6 5 1 1 1 1 3 3
1 2 2 1 4 1 2 1 2 3 1 0 0 1 3 3 5 2 2 1 1 3 8 10 11 9 4 4 1 3 4 9 10 6 6 8 8 9 8 8 5 5 5 5 6 7 8 7 7 7 10 9 10 9 8 7 6 6 8 10 12 11 9 8 8 9 10 9 9 8 8 7 7 7 6 6 6 6 6 5 6 4 2 2 2 3
2 1 1 3 2 2 3 2 3 0 1 0 0 1 4 7 2 0 1 3 0 5 3 4 7 12 5 4 4 3 5 13 12 13 11 9 8 8 7 7 6 5 5 5 5 7 8 8 8 8 10 10 9 10 10 9 9 10 11 11 12 11 9 7 7 9 10 10 10 9 8 8 7 7 6 6 6 7 6 6 7 7 7 6 3 1
2 8 3 2 4 4 1 0 0 1 1 1 0 1 0 3 0 2 3 1 4 6 1 4 4 2 6 3 8 4 8 2 5 10 12 12 11 9 8 6 5 6 5 3 4 6 6 7 7 7 7 8 10 10 10 11 9 9 9 9 8 9 8 7 7 9 11 12 11 10 9 8 7 7 7 6 8 6 7 7 7 7 7 7 7 7
3 2 5 3 3 3 3 4 2 2 2 3 3 3 1 2 1 3 3 2 3 0 2 3 5 1 2 4 4 7 7 8 12 12 10 11 11 9 7 6 7 6 2 3 5 6 6 6 5 5 6 7 8 8 9 8 9 8 8 8 7 6 6 7 8 10 11 12 11 10 9 8 7 8 7 7 7 7 6 6 6 7 6 7 7 7
4 3 2 4 2 5 6 7 2 0 7 8 3 7 6 4 1 4 2 4 4 4 0 1 4 4 2 3 3 10 7 11 11 12 11 10 9 8 7 8 6 3 3 4 5 5 6 5 5 5 6 6 6 7 7 6 7 6 6 6 7 8 9 9 9 9 11 10 10 9 8 8 7 7 7 7 7 7 7 7 7 7 6 7 7 7
4 5 1 1 1 3 6 3 1 1 1 3 2 1 1 4 1 8 3 3 3 5 6 2 4 2 3 3 7 6 10 11 9 10 9 9 8 7 7 6 4 3 3 3 4 5 5 4 4 5 5 5 5 5 5 6 6 6 6 5 5 6 7 9 10 10 9 9 8 8 9 8 7 6 6 6 7 7 7 7 7 7 7 7 7 7
1 5 4 2 0 3 3 1 0 1 1 1 3 2 2 1 1 3 4 4 4 4 11 5 5 7 0 5 6 8 10 9 8 8 8 8 6 7 6 4 3 1 3 4 4 4 4 4 5 5 5 5 6 6 6 5 4 4 4 4 6 7 7 8 7 7 8 9 9 9 9 8 8 8 7 8 8 8 8 7 7 8 8 7 7 7
4 3 1 4 3 0 0 1 1 2 0 5 1 4 2 1 1 1 4 2 5 8 7 4 8 7 3 5 5 7 10 6 7 7 8 7 5 5 4 3 2 3 3 4 4 3 4 4 4 4 4 4 4 4 4 4 5 4 4 6 7 7 8 7 8 9 10 10 8 8 9 9 8 7 7 7 7 6 6 7 7 8 9 9 9 7
2 5 5 3 1 0 0 0 2 1 2 5 3 1 1 2 4 2 1 4 6 7 5 4 9 9 8 7 4 4 7 7 8 7 7 7 5 5 4 4 4 3 3 2 2 2 1 3 3 3 3 3 2 2 2 3 3 4 5 5 4 4 5 5 6 6 7 7 6 6 7 8 8 8 7 6 6 6 6 7 6 5 5 6 7 8
1 2 2 1 2 1 1 1 2 0 1 2 0 3 2 2 4 4 3 2 2 8 5 5 6 5 4 2 3 5 8 8 9 6 5 7 6 5 4 4 3 2 2 0 1 1 1 1 1 2 3 4 4 3 3 3 3 2 2 2 3 4 5 7 8 7 7 6 6 6 6 6 6 8 8 9 8 9 8 8 8 8 8 8 6 5
1 0 4 1 1 1 3 3 4 2 2 2 1 1 0 1 1 1 2 3 5 5 5 5 6 4 2 4 4 5 6 6 7 7 5 4 4 4 4 3 3 3 2 2 2 1 1 0 2 3 4 3 4 3 2 3 3 2 1 2 4 5 6 8 7 6 5 5 5 5 5 5 5 6 6 7 7 8 8 9 9 9 8 8 9 9
1 2 6 3 4 3 4 0 2 1 3 2 5 4 3 1 3 4 7 2 2 4 6 7 11 4 0 4 4 5 4 7 6 7 5 4 4 4 3 2 3 2 3 2 2 2 2 4 5 5 5 4 4 3 2 3 2 2 2 3 4 5 5 5 5 5 6 5 4 5 3 3 3 3 3 4 4 5 5 6 6 7 9 10 10 8
2 1 1 4 4 7 8 7 8 7 5 5 4 3 3 4 3 2 9 7 5 5 5 7 9 7 1 3 4 4 5 6 7 7 7 5 5 5 5 5 4 5 4 4 4 4 4 3 3 3 3 2 2 1 1 1 1 1 2 3 3 4 4 4 4 4 4 4 4 5 4 3 3 3 4 4 4 4 4 4 4 4 4 5 6 6
8 1 1 4 6 8 11 8 3 6 1 3 4 1 0 3 0 2 3 2 0 4 6 3 7 2 2 1 2 5 4 5 4 5 6 5 5 6 6 6 5 5 5 4 3 3 3 4 3 3 1 0 1 1 1 1 1 1 2 2 2 3 3 4 4 4 4 4 3 4 4 4 4 3 3 3 3 3 4 4 4 4 4 5 6 7
1 4 3 1 2 3 4 4 1 3 5 3 1 2 1 3 3 1 1 1 4 5 7 4 8 3 1 1 1 4 4 4 5 4 6 6 5 5 5 4 4 3 2 2 3 2 2 2 2 2 2 2 3 3 3 3 2 2 2 3 2 2 1 3 2 4 4 5 4 4 4 3 3 4 4 4 3 3 4 4 4 3 3 4 4 5
1 2 1 2 5 7 7 6 2 1 2 1 2 3 3 3 6 5 4 2 5 3 7 3 5 3 1 2 4 4 4 3 3 5 4 5 5 5 4 4 4 4 2 0 2 1 0 0 0 0 1 1 1 1 2 3 2 2 1 1 1 1 1 3 2 4 4 5 5 6 6 5 5 5 5 5 5 5 5 5 5 5 5 5 6 5
0 1 2 5 7 9 8 4 2 2 1 3 4 4 6 5 4 4 4 7 10 6 8 11 14 12 11 11 9 5 4 4 5 5 6 5 4 4 4 4 3 2 2 0 0 1 2 3 3 2 2 2 2 2 2 3 4 4 4 4 3 2 1 2 1 3 3 4 4 5 5 5 5 6 6 6 5 5 5 5 6 6 6 5 4 5
1 2 5 5 6 10 9 11 11 9 10 7 7 8 8 7 5 5 7 11 3 6 13 9 9 9 9 10 8 6 2 4 4 3 4 3 3 4 3 2 1 0 1 1 1 2 3 3 2 2 2 1 2 2 3 3 3 3 3 3 4 4 4 4 4 5 5 5 5 5 6 6 6 7 8 8 7 6 5 5 5 5 6 6 6 5
1 3 2 2 3 6 5 8 6 6 5 7 9 10 12 11 11 12 10 6 4 8 14 11 13 15 12 11 11 10 9 12 7 4 3 4 5 4 4 3 4 4 5 5 5 4 5 4 4 4 3 3 3 3 4 4 4 4 4 3 3 3 3 2 1 3 4 5 5 6 5 5 5 5 6 7 7 9 9 8 7 6 6 6 7 7
1 3 5 3 7 6 9 8 5 6 6 8 11 13 14 15 17 14 10 9 11 10 10 12 11 14 13 14 13 9 3 2 4 4 4 4 3 4 3 3 4 4 4 5 5 5 4 4 4 4 4 4 5 5 5 5 5 5 5 5 4 4 4 1 2 2 4 5 6 6 6 6 6 6 7 7 8 8 8 9 9 9 8 8 7 7
3 5 7 2 1 5 7 5 3 3 5 9 9 11 13 14 13 9 12 13 11 12 15 15 15 17 11 11 3 2 2 3 3 2 3 2 3 2 1 1 3 3 4 4 5 5 4 3 4 4 5 5 5 6 6 5 5 5 4 4 4 4 4 2 1 3 4 5 5 6 6 6 7 7 8 9 8 8 8 9 9 9 9 10 9 9
1 3 3 0 3 8 9 5 4 5 7 9 13 17 18 15 13 12 12 6 9 12 12 11 12 11 5 3 2 2 2 2 1 1 2 1 2 1 0 2 2 2 3 4 4 4 3 4 5 5 5 5 5 5 5 5 5 4 4 4 4 4 2 2 3 4 5 6 6 7 7 7 8 8 10 8 9 9 9 9 9 9 9 10 11 10
3 1 2 2 5 9 12 6 2 1 4 9 16 20 15 14 15 13 12 13 13 12 13 12 12 6 2 3 2 1 3 0 2 1 3 2 1 1 2 4 3 2 3 4 4 4 5 5 5 6 6 5 5 6 6 5 3 3 4 4 4 3 4 4 4 6 7 8 8 9 9 8 8 9 9 9 9 9 9 10 10 10 10 11 9 9
3 3 3 2 5 4 7 1 3 1 8 15 5 3 8 10 9 12 12 11 10 9 7 6 4 3 3 1 3 1 3 0 1 2 2 2 2 4 5 4 2 2 1 3 4 5 5 5 5 4 5 5 3 4 4 5 4 4 4 4 5 5 5 7 9 9 10 10 10 10 10 10 9 10 10 10 9 9 9 10 11 10 9 8 8 10
3 4 4 3 2 4 2 2 4 10 16 4 3 4 6 9 7 10 9 9 9 9 10 11 5 3 4 5 4 3 1 1 2 2 5 4 3 5 5 4 2 0 1 1 3 4 5 5 5 6 7 8 5 5 6 6 5 5 6 5 6 6 7 7 8 9 10 11 11 10 9 10 9 11 11 11 10 10 11 10 10 10 9 8 9 10
6 6 3 3 3 2 3 7 10 14 5 1 4 1 3 2 4 2 8 8 9 11 10 7 7 4 8 6 3 2 0 3 3 4 6 7 6 6 4 2 1 1 0 2 1 3 3 4 4 4 3 3 5 5 4 4 5 5 5 5 5 5 5 5 7 9 9 10 10 10 10 10 11 11 11 12 12 12 12 11 11 11 10 9 9 10
8 4 4 5 4 7 6 9 15 8 10 8 6 4 3 4 4 5 5 5 4 3 2 1 1 6 6 3 2 1 1 1 3 7 5 7 7 4 4 1 1 1 1 2 1 1 4 4 4 3 2 3 4 4 4 5 6 6 6 6 5 5 6 6 8 9 10 10 11 11 11 11 12 13 14 13 13 12 12 12 13 12 10 11 12 13
7 9 4 5 3 8 7 8 7 5 11 7 1 1 2 2 4 0 3 5 4 6 2 4 3 6 4 2 0 1 0 1 5 4 3 5 4 2 0 2 2 2 2 1 3 5 4 3 3 4 4 5 5 5 6 6 6 6 6 6 7 7 8 8 10 10 10 11 10 11 11 11 12 13 14 13 13 13 13 13 12 12 11 12 14 15
2 1 4 7 3 5 5 7 7 8 6 3 3 1 1 1 3 2 3 7 0 1 1 8 6 3 2 1 1 1 1 1 6 4 3 1 0 2 1 2 1 1 2 5 4 3 2 2 4 4 5 5 5 6 7 7 7 7 7 7 8 8 9 10 10 10 11 12 11 10 10 11 12 13 13 13 13 12 14 15 14 14 14 14 14 15
3 2 4 4 9 9 8 9 10 4 4 2 3 3 4 1 2 8 10 6 2 4 4 6 7 5 3 3 4 3 5 5 7 7 2 2 1 0 1 1 2 2 5 3 4 3 2 3 5 6 6 6 6 7 8 6 6 6 8 9 8 8 9 10 10 11 11 11 11 11 11 11 12 12 12 14 15 15 15 14 14 14 14 14 13 15
2 1 5 12 12 12 14 9 6 7 5 3 6 5 5 2 3 2 12 6 3 6 4 5 5 5 3 3 4 4 7 8 6 6 3 3 4 4 2 0 3 5 4 3 2 4 4 5 5 5 5 5 7 7 6 6 8 9 8 8 8 8 9 10 10 11 11 11 11 11 11 11 10 13 14 12 13 14 15 13 13 15 15 16 15 15
0 3 3 4 8 10 8 10 10 6 5 7 4 10 5 4 2 8 3 3 7 7 6 4 4 3 3 5 5 7 6 5 4 4 5 5 5 4 2 3 4 4 4 3 6 6 5 4 5 5 5 5 7 6 5 7 9 9 8 8 9 8 9 10 10 10 10 11 11 11 11 11 11 11 12 13 13 14 15 13 13 14 14 13 14 16
7 5 5 6 4 4 4 8 8 10 2 5 3 3 3 4 4 1 3 2 6 8 6 5 5 6 6 6 6 7 5 4 4 5 4 5 5 5 1 4 3 3 3 3 5 6 5 4 4 4 4 5 5 6 6 7 8 8 8 9 10 9 10 10 10 11 11 12 13 12 12 12 12 13 11 12 12 13 15 14 13 14 13 14 15 15
4 2 3 6 6 4 6 7 6 3 5 7 7 5 4 6 7 5 5 4 5 6 6 6 7 7 7 7 7 5 5 5 4 4 4 5 4 1 4 3 3 3 3 5 6 5 4 4 3 4 4 5 4 5 5 5 8 8 9 11 9 9 9 10 10 11 12 12 13 13 13 12 12 12 11 12 13 13 13 14 13 13 11 12 13 13
6 8 6 7 4 5 5 4 2 4 3 5 8 7 5 6 5 5 5 5 6 7 6 6 6 6 6 6 5 5 5 4 5 5 4 5 2 2 1 2 2 3 4 4 4 4 4 4 4 6 6 5 5 4 4 4 6 9 10 10 7 9 10 11 11 12 13 14 13 13 13 13 12 12 12 11 11 13 12 13 12 12 11 11 12 12
4 8 5 5 9 6 7 8 4 7 6 3 6 7 7 7 8 6 5 6 5 7 6 7 5 5 4 4 4 4 5 5 5 5 4 1 2 1 2 2 3 4 4 3 3 4 3 4 4 5 8 7 4 5 4 4 4 9 11 9 9 9 9 10 12 13 14 13 13 13 14 15 13 12 12 13 11 11 11 12 12 11 12 11 12 12
7 7 6 8 6 5 6 3 4 7 8 7 8 7 7 8 9 7 7 8 8 7 6 5 6 5 6 5 5 6 6 5 5 5 3 2 2 2 1 1 3 3 3 3 3 4 4 4 6 6 7 10 6 4 4 5 5 7 8 9 10 10 10 10 12 13 13 14 13 13 12 14 12 13 12 11 11 10 10 11 11 12 12 12 13 13
7 7 11 12 10 10 11 5 9 9 8 8 7 6 7 9 9 8 9 8 8 7 7 8 6 6 5 4 6 6 7 6 6 6 3 1 1 1 1 2 2 2 3 3 2 2 2 3 4 6 6 8 7 5 6 6 7 7 8 8 9 9 10 11 11 13 14 14 13 12 12 13 14 15 12 11 11 11 11 11 11 12 12 12 13 13
6 2 8 2 6 9 5 6 10 8 9 10 9 6 7 9 8 8 8 7 6 6 6 6 7 7 6 7 5 6 6 5 4 3 3 2 1 1 1 2 2 1 1 2 1 2 3 3 4 5 6 8 6 7 7 7 7 6 8 9 9 9 10 12 12 12 13 13 12 13 12 11 12 12 12 13 12 11 11 12 12 13 14 14 12 13
7 12 10 8 9 7 7 8 4 5 8 9 10 13 13 12 12 11 9 7 7 7 5 6 5 4 5 5 6 6 6 5 4 3 4 3 2 1 1 1 1 1 1 1 2 3 3 3 4 5 7 7 6 7 7 8 8 7 8 8 8 9 11 12 12 12 12 12 12 12 11 11 11 12 12 12 13 13 12 14 23 20 17 15 21 30
12 13 9 9 9 10 9 8 8 11 11 10 10 8 7 6 7 7 6 7 7 7 8 8 7 4 5 4 4 6 5 6 4 4 4 3 2 2 2 1 0 1 2 2 4 4 3 3 4 5 7 7 5 6 8 9 10 9 9 8 8 9 10 11 11 12 12 12 11 12 13 12 12 12 11 12 12 12 13 13 12 21 29 28 28 29
Wind_Direction
138 174 174 192 222 234 238 230 230 237 243 257 258 256 268 285 286 279 280 290 293 309 271 281 281 300 285 273 275 268 280 276 275 275 278 286 49 72 76 78 73 66 57 46 46 45 33 25 20 20 22 21 26 24 16 17 16 10 11 13 33 32 25 62 66 68 87 87 58 56 97 138 149 135 76 73 27 55 70 89 98 124 126 154 168 177
112 206 217 215 228 241 248 265 278 289 305 296 295 297 285 278 280 271 290 295 331 81 294 303 291 286 304 291 272 274 281 272 269 306 18 52 62 68 70 69 67 67 58 41 37 34 33 26 24 23 24 21 26 17 18 21 17 12 10 12 10 21 17 26 45 86 74 96 137 142 175 153 141 136 134 143 109 119 90 100 112 131 139 160 173 178
188 210 231 228 229 247 261 270 273 274 284 301 297 305 307 276 276 283 270 272 261 116 267 302 308 297 291 279 281 285 266 282 44 76 65 75 67 63 62 66 60 52 47 40 37 32 33 28 28 30 28 28 26 20 20 15 20 18 12 11 17 18 14 14 22 31 38 37 33 50 32 41 21 50 61 66 50 80 76 77 91 112 138 147 171 181
227 212 235 234 241 248 258 258 266 265 240 246 281 288 259 260 267 305 266 98 176 354 300 292 291 295 281 278 280 271 256 81 80 74 70 68 76 67 61 60 59 58 47 46 35 30 29 35 33 34 33 27 25 23 19 16 17 17 14 17 25 20 14 11 6 12 30 59 58 57 54 49 80 78 38 41 39 41 47 44 60 53 109 136 166 181
229 246 343 186 225 234 254 271 283 275 273 239 225 235 261 271 259 253 298 345 336 306 274 287 276 265 250 273 299 279 159 80 84 81 75 68 64 72 72 61 55 57 55 50 43 32 33 37 39 38 36 32 33 25 21 16 17 13 11 19 24 22 14 6 5 4 7 41 50 66 55 57 55 43 73 80 56 105 101 63 97 235 134 159 173 183
256 258 259 224 238 260 272 274 252 238 278 274 245 236 247 261 291 333 347 354 342 307 24 75 327 227 275 313 279 267 104 85 73 87 72 71 64 59 54 56 59 56 47 52 45 34 28 41 45 43 39 37 34 31 21 20 20 17 13 18 19 18 15 5 2 5 10 34 43 33 35 28 28 22 41 116 197 172 154 191 205 176 171 187 191 187
255 97 49 181 197 194 225 248 253 217 245 247 253 41 12 44 37 316 320 45 310 247 275 136 223 283 219 265 255 261 101 94 77 79 86 75 77 69 63 51 40 45 40 42 52 38 31 28 35 38 37 35 35 27 21 24 26 24 20 17 18 15 11 6 3 10 17 31 31 36 38 38 34 23 2 15 35 50 24 116 133 174 168 187 189 207
186 193 65 39 158 185 223 246 245 201 195 256 3 342 4 30 36 15 353 210 243 251 260 259 229 253 289 255 259 231 114 112 100 96 85 82 77 78 75 57 36 39 43 37 45 40 37 34 34 35 34 34 34 26 25 27 25 27 24 17 14 12 13 12 7 12 20 35 30 30 28 25 23 19 5 3 7 55 62 33 44 87 172 186 197 223
99 152 131 166 189 191 216 227 333 163 173 193 291 37 359 60 292 275 238 247 248 319 282 203 183 292 247 243 247 166 113 117 121 112 103 95 77 77 73 68 51 35 40 46 47 42 37 34 32 32 37 34 32 29 29 23 21 25 25 19 18 29 24 15 15 19 24 33 34 34 26 21 12 13 5 0 2 8 36 53 29 349 260 184 211 218
5 107 209 189 141 211 211 18 337 84 225 144 242 276 243 236 247 219 232 260 309 265 264 182 179 208 276 255 255 189 117 146 137 132 124 107 103 87 81 69 60 30 30 37 47 51 46 39 33 31 36 37 32 28 27 24 20 22 24 30 34 34 27 18 23 28 34 35 35 31 20 21 11 7 5 10 4 0 359 360 332 229 243 236 202 216
191 258 68 281 211 222 115 110 42 23 83 36 324 304 287 245 235 243 211 241 321 239 252 225 205 184 297 273 240 152 185 164 139 121 115 110 99 94 81 82 63 52 23 25 40 41 48 41 33 25 40 35 33 27 26 23 20 18 27 28 33 29 24 16 26 36 42 40 41 34 22 16 12 7 13 12 3 356 0 351 340 337 304 247 210 190
204 122 67 249 248 96 126 71 5 10 25 46 40 13 337 295 122 134 253 127 137 270 266 293 192 188 180 275 20 46 105 144 152 155 144 124 104 90 85 69 72 54 35 21 26 38 36 33 26 21 28 29 26 26 25 21 17 19 21 23 28 22 15 8 14 39 46 47 44 41 26 16 8 9 12 8 12 2 360 356 354 348 353 338 317 212
228 221 205 110 307 149 140 25 1 33 47 83 46 350 29 289 25 273 93 321 211 233 267 9 14 208 239 267 289 36 45 51 125 130 131 121 109 98 89 93 77 55 40 3 27 47 38 38 29 23 26 29 25 24 15 14 13 16 18 19 25 21 9 7 9 33 40 41 38 36 32 23 10 4 12 12 14 3 2 357 357 356 353 347 352 339
275 68 166 196 46 239 144 144 228 353 207 146 178 169 159 316 276 261 261 225 265 305 289 63 25 268 253 284 350 88 64 60 77 87 98 107 110 103 96 85 67 67 55 28 37 41 39 35 26 29 33 33 31 27 24 16 14 6 9 7 18 16 11 9 18 25 37 39 34 29 30 25 17 13 11 16 14 2 358 355 352 350 348 345 340 338
319 322 226 152 258 157 189 199 164 202 165 201 207 158 177 192 200 272 248 249 237 231 303 267 26 225 129 232 104 91 82 76 72 78 83 82 84 90 88 76 72 73 35 38 47 44 41 25 26 30 30 32 30 26 20 19 12 12 6 3 8 13 11 14 18 23 33 35 31 26 23 21 18 16 12 12 11 2 360 354 352 348 347 349 339 337
200 238 163 156 207 160 186 266 354 5 359 214 219 49 352 227 169 247 256 284 301 320 308 240 196 259 322 107 94 85 86 81 80 86 87 90 88 82 75 70 70 51 52 40 39 44 35 32 23 27 22 27 24 24 23 15 11 8 0 356 5 16 11 13 14 20 24 29 30 27 22 15 11 11 10 11 9 7 5 355 356 347 347 342 336 336
94 249 155 209 116 191 208 27 16 60 186 305 56 197 210 332 63 281 313 261 291 276 253 254 286 281 143 96 104 107 98 89 93 90 89 85 85 81 78 90 103 106 63 47 47 37 23 17 27 24 28 15 17 16 15 9 358 353 344 353 3 9 13 17 16 19 23 21 26 19 16 11 10 11 15 11 6 6 4 4 359 357 345 339 339 333
216 265 132 127 241 253 224 347 352 41 158 63 221 236 298 181 88 185 265 243 243 244 258 244 271 279 308 276 139 125 107 119 102 108 104 99 95 99 112 135 121 94 84 68 54 44 40 33 15 19 16 22 15 16 5 3 360 352 353 4 12 10 15 5 9 14 16 19 19 16 10 5 4 3 3 6 14 6 12 2 2 357 356 349 340 335
73 297 250 257 156 198 265 17 328 109 28 184 223 30 79 272 300 245 140 256 251 246 266 214 251 256 250 248 139 180 129 129 123 122 126 125 125 134 144 120 106 85 71 64 70 51 29 40 15 359 1 333 337 349 352 338 354 1 5 1 8 11 6 5 12 18 20 22 14 8 3 356 357 359 359 358 8 7 11 7 0 0 348 336 337 339
8 212 302 358 77 157 48 107 261 298 339 116 130 350 185 102 206 261 227 222 223 267 283 247 233 252 238 38 357 110 124 138 139 140 131 135 137 134 132 130 129 135 115 153 81 84 12 23 342 308 315 318 320 335 334 331 325 343 338 342 353 5 14 15 18 15 13 7 7 1 3 355 359 355 355 353 360 3 3 359 355 350 354 344 335 340
296 231 259 137 298 48 341 166 225 198 231 356 52 281 347 212 182 137 331 261 239 265 241 286 261 265 334 353 48 101 126 142 139 125 124 115 114 121 130 147 143 166 175 200 199 189 194 293 303 305 296 300 296 293 309 306 301 289 313 348 359 16 10 15 3 10 357 359 349 358 351 350 354 355 350 352 354 3 353 354 351 350 346 341 344 346
171 243 232 350 337 214 227 289 113 45 300 256 151 222 201 189 288 264 266 194 195 224 251 244 258 243 353 330 83 85 81 94 111 129 126 140 143 150 148 145 154 161 187 154 180 173 212 214 227 235 241 242 242 248 237 268 267 309 333 0 9 17 8 18 350 7 342 345 346 345 332 315 316 331 336 349 339 2 343 348 341 339 345 344 335 341
113 97 90 245 233 251 266 278 296 301 262 245 163 234 257 264 152 169 262 254 267 243 243 234 265 239 130 295 87 100 103 117 130 137 147 155 163 160 164 170 182 186 199 203 200 212 204 219 224 231 233 231 220 229 229 251 332 332 356 28 13 31 359 7 337 350 330 326 329 324 318 332 324 336 327 350 323 345 326 324 319 319 329 311 311 318
64 116 174 256 244 261 264 266 40 26 43 290 264 310 245 245 108 206 239 92 217 331 306 282 250 247 231 24 86 105 115 114 129 142 156 166 172 176 170 182 190 175 205 198 211 210 209 208 236 235 242 64 35 40 356 16 31 17 11 33 29 22 1 357 345 347 339 329 324 317 323 318 312 335 319 332 300 331 305 308 300 304 324 315 319 320
97 283 131 290 311 300 302 296 38 8 38 35 357 330 32 311 290 258 10 207 242 187 251 255 259 263 213 182 281 126 125 143 153 165 166 165 180 182 173 172 161 149 127 144 112 75 35 38 30 40 18 15 20 17 7 8 16 13 8 15 6 358 341 349 331 360 343 344 343 333 332 318 321 332 320 316 302 310 314 313 303 291 296 302 305 310
137 220 103 219 248 262 263 255 260 17 50 174 251 272 287 247 274 309 288 244 253 203 195 247 273 225 35 261 203 168 168 162 177 188 197 174 174 176 169 153 156 145 136 141 121 90 131 203 209 82 1 353 4 11 356 352 353 352 351 330 302 303 319 330 2 352 356 343 352 338 341 338 343 338 333 323 318 322 329 324 319 315 320 321 318 318
132 284 177 206 225 243 251 285 300 319 228 276 287 286 278 277 260 234 261 262 260 284 288 256 264 285 284 280 285 281 159 172 211 215 203 192 175 157 142 141 147 158 147 163 72 345 327 345 323 322 332 340 341 351 351 344 348 341 347 337 338 342 359 327 29 349 356 336 339 334 328 334 333 328 325 318 310 318 327 321 318 319 312 305 304 309
155 230 231 227 235 247 259 267 275 277 274 270 269 269 275 268 250 246 232 256 344 341 265 259 271 282 272 288 300 313 312 242 249 237 199 183 155 137 141 129 131 116 263 222 242 246 248 249 272 278 275 309 306 321 326 313 308 307 300 313 314 328 342 339 8 351 348 344 339 335 326 326 327 327 322 319 316 314 309 303 307 307 303 304 304 298
139 234 260 278 256 267 271 274 283 295 288 281 277 279 277 274 268 256 254 255 246 239 265 280 284 279 280 278 288 291 298 294 294 259 128 121 120 124 133 161 198 220 229 219 222 230 225 227 235 244 256 262 264 272 269 266 271 275 276 269 270 279 290 281 4 332 331 331 325 314 309 308 306 300 304 306 311 311 310 307 302 299 296 292 292 292
110 263 247 232 255 259 258 261 275 279 284 281 273 267 266 265 262 265 276 266 249 258 267 272 272 275 282 285 289 297 316 49 72 76 100 108 149 145 173 196 220 232 226 216 225 228 227 227 229 234 238 244 243 248 254 256 258 252 245 257 265 272 270 270 295 320 321 314 302 298 299 298 298 298 296 299 298 294 295 299 302 302 300 295 286 279
120 258 107 40 307 274 272 272 279 270 267 269 268 266 260 260 269 274 272 270 285 277 270 274 276 274 270 278 295 94 61 80 87 107 99 160 140 139 169 222 241 239 243 240 233 232 228 233 244 251 254 246 244 243 242 243 244 246 250 258 263 263 264 251 270 287 283 283 279 284 287 292 290 292 293 289 291 290 291 292 292 294 296 298 297 293
26 261 353 75 293 280 277 276 268 253 259 259 265 258 254 257 268 256 257 258 257 263 271 274 266 267 285 88 84 122 107 102 81 78 96 69 97 99 270 271 287 300 317 310 297 265 244 243 244 248 250 252 249 249 251 253 253 255 259 266 273 265 285 326 303 295 286 280 284 282 285 283 284 285 283 285 284 285 285 284 284 285 288 293 297 298
205 152 155 229 249 260 270 286 286 264 284 275 248 248 258 258 251 261 259 254 250 261 266 263 262 260 203 158 111 223 94 342 75 38 63 350 315 161 235 250 257 275 271 266 273 281 266 244 237 234 242 255 251 246 247 241 255 272 272 302 292 343 0 337 321 310 303 297 293 290 287 285 283 282 281 280 280 281 283 281 278 280 284 285 289 299
147 154 195 202 254 255 271 37 76 186 234 243 275 209 224 244 248 253 251 248 246 227 240 235 238 147 189 233 153 115 105 308 112 267 218 192 232 256 251 245 245 251 299 336 343 339 325 314 292 256 237 247 288 339 356 14 20 354 359 7 8 6 341 338 325 313 303 299 295 293 292 290 289 286 284 284 283 281 279 278 276 277 278 282 290 289
186 198 203 197 211 230 212 126 251 228 247 268 129 225 253 257 253 250 265 266 267 272 274 277 265 192 162 130 119 108 96 267 301 249 277 245 201 219 225 222 226 98 16 341 341 323 318 318 335 355 10 23 26 22 21 8 16 8 358 358 352 340 331 321 306 302 301 298 297 297 296 294 293 294 294 294 292 289 284 282 283 280 279 282 283 287
215 209 205 230 230 281 247 232 250 246 256 219 254 177 64 102 197 240 274 258 256 251 250 255 258 211 129 130 136 156 190 250 260 264 251 255 230 217 213 194 158 87 17 272 278 283 316 10 55 62 37 7 30 12 13 7 2 7 331 333 326 317 314 308 303 298 298 297 299 302 304 305 304 302 302 301 298 295 293 295 293 291 290 286 284 281
201 210 203 255 212 237 227 238 245 297 301 266 278 252 193 206 208 191 226 272 193 216 239 129 32 93 124 115 103 286 289 347 339 294 267 241 250 218 155 141 153 221 215 247 238 307 68 92 79 60 53 36 31 7 6 10 9 351 334 327 319 324 315 311 304 302 301 300 303 307 311 314 313 310 306 303 300 300 301 302 300 298 299 293 289 286
200 197 210 210 254 223 234 261 273 272 261 269 228 298 347 68 98 281 110 272 277 271 268 191 167 132 116 108 127 273 334 46 322 294 311 63 109 104 193 187 205 197 219 248 41 72 58 50 58 36 44 24 10 23 27 14 8 348 330 324 323 322 315 312 305 306 306 305 312 313 316 316 313 308 306 308 306 306 306 306 304 302 304 298 295 289
18 119 186 212 244 257 254 247 241 251 259 149 190 90 30 99 69 29 30 279 292 305 179 124 125 127 119 179 243 217 105 261 258 256 244 120 176 162 159 249 210 249 56 94 106 76 54 47 55 43 39 27 33 25 18 7 357 346 328 322 322 319 314 311 310 314 314 314 315 317 320 318 314 309 310 313 316 318 314 310 306 302 300 294 290 287
185 215 114 233 234 228 240 241 249 235 237 262 199 242 235 214 41 51 300 292 165 233 173 135 146 154 197 194 197 170 173 206 250 251 254 328 282 230 199 248 299 41 84 105 87 84 58 57 46 33 30 37 32 10 7 0 352 336 325 320 321 317 312 311 315 316 314 317 321 322 319 315 313 316 321 318 313 310 304 303 302 299 298 295 292 289
145 298 197 216 224 231 231 247 264 261 257 179 192 192 188 146 84 239 261 263 216 218 223 154 178 164 176 191 208 187 227 204 212 235 277 300 312 306 293 265 95 121 109 82 50 50 53 50 54 42 44 37 18 6 357 356 345 328 323 318 317 310 310 315 318 317 319 319 318 318 317 315 317 316 312 308 304 302 299 300 299 300 298 296 294 292
173 128 291 219 222 224 222 238 238 269 229 197 247 158 156 69 258 224 236 174 164 214 236 178 182 216 181 210 214 220 230 236 259 284 284 273 251 244 255 101 100 78 83 77 62 59 54 42 45 35 26 27 11 1 357 346 334 321 320 319 310 309 318 319 319 320 318 316 314 311 308 307 306 303 299 299 298 296 293 295 295 293 295 293 293 293
195 138 224 208 215 214 205 238 247 244 333 112 120 38 229 153 232 188 182 224 188 195 203 221 195 230 201 231 226 222 237 256 244 252 253 260 264 267 108 106 90 85 53 43 48 48 47 35 28 12 359 4 359 1 350 344 323 316 315 308 307 319 322 320 319 316 314 311 308 306 304 302 301 299 297 293 292 291 292 294 292 289 288 288 288 288
231 158 226 235 161 189 206 221 215 209 206 184 146 191 219 197 207 211 150 210 218 187 199 207 225 219 217 213 224 236 232 235 264 252 266 271 265 120 122 119 108 95 83 77 88 64 49 33 13 344 345 345 356 352 346 333 315 311 307 301 315 322 319 316 314 313 310 308 305 305 304 302 301 297 294 293 293 289 289 289 288 286 285 286 285 286
196 197 189 227 205 181 193 226 204 135 171 196 177 206 208 238 235 219 202 198 186 222 205 204 231 237 210 202 213 219 246 238 230 232 238 253 211 140 114 108 89 88 86 85 77 63 51 29 348 333 327 339 341 338 324 323 309 305 301 304 321 316 316 314 314 312 309 307 306 305 304 301 299 297 295 293 291 291 290 287 287 287 285 283 284 281
244 217 211 249 250 253 260 249 271 290 266 204 207 194 210 237 246 239 219 236 228 224 216 227 221 213 216 195 203 243 230 242 252 260 251 170 130 133 108 82 76 82 84 75 61 44 36 7 352 339 322 322 329 315 314 304 301 299 299 310 313 312 312 312 312 309 306 305 305 304 303 302 301 297 297 294 289 284 283 285 288 286 287 283 280 279
236 244 246 242 254 270 248 197 215 235 251 238 234 234 229 227 238 233 230 227 232 226 225 215 203 210 206 194 192 211 232 234 247 256 213 153 144 127 106 107 93 93 84 75 58 36 8 359 336 326 317 308 314 311 308 302 295 289 300 308 309 311 311 311 308 305 305 305 305 304 303 304 305 302 298 293 291 285 285 285 283 284 284 282 282 281
263 223 245 237 245 229 252 231 247 242 242 243 234 238 245 246 243 238 229 222 221 220 212 217 200 207 172 193 202 209 228 230 232 235 200 156 143 119 111 104 98 79 80 86 52 49 12 341 317 307 305 301 306 311 305 302 298 297 301 303 307 309 309 306 306 305 305 304 305 304 305 302 297 297 297 295 294 294 291 285 282 282 280 281 281 282
241 199 244 156 217 244 264 236 239 256 257 255 253 243 233 238 241 243 244 237 225 222 216 201 175 188 178 210 197 202 216 222 194 178 173 169 149 130 99 101 93 95 71 22 10 30 334 310 302 291 296 295 303 304 302 296 297 300 303 305 308 308 307 305 304 300 299 302 304 300 298 295 296 295 296 295 293 285 283 288 286 280 274 265 260 262
246 242 251 267 261 252 236 236 210 250 256 253 243 238 243 243 244 248 250 251 242 235 186 177 197 178 179 181 180 180 203 204 181 157 180 174 166 116 93 84 77 51 24 25 12 326 309 299 293 301 297 296 302 301 300 301 302 303 301 303 303 305 305 304 303 301 302 303 300 297 297 297 295 296 295 294 293 293 284 273 285 288 288 288 284 285
230 239 237 235 234 248 245 243 219 233 246 241 249 251 231 220 213 221 225 226 229 218 182 177 181 184 193 203 168 175 186 178 173 136 149 149 134 108 101 101 46 354 330 338 325 309 296 298 304 295 293 294 305 302 303 302 302 304 304 302 303 304 301 300 303 303 301 301 297 297 298 298 298 295 293 292 293 291 293 294 283 284 288 287 290 291